Weather in Dehkanabad

Uzbekistan     39°43′32″N   67°08′01″E
temp.,
°C
wind,
m/s
gust,
m/s
humid.,
%
clouds,
%
prec.,
mm/h
press.,
hPa
HPBL,
m
20 april, tue
tue2023:00+16ne0142100 0.0 101311
02:00+15s1144100 0.0 101211
05:00+15ssw1142100 0.0 101311
08:00+17sw1237100 0.0 1013139
11:00+22wsw44255 0.0 10132119
14:00+24w772338 0.0 10113177
17:00+23wsw8102688 0.0 10103265
20:00+19sw5931100 0.0 1011187
21 april, wed
wed2123:00+17w5940100 0.1 1012235
02:00+13wnw226781 0.6 101326
05:00+12wnw2269100 1.0 101432
08:00+13wnw24657 0.4 1017460
11:00+17nw454833 1.2 10161588
14:00+17ne564427 0.3 10161572
17:00+15ene88516 0.3 1017710
20:00+12ne711501 0.0 1019534
22 april, thu
thu2223:00+9ne611480 0.0 1021430
02:00+7ne611790 0.0 1021345
05:00+5ne610850 0.0 1023276
08:00+8ne69630 0.0 1024387
11:00+13ne67480 0.0 1023657
14:00+16ne77370 0.0 1023903
17:00+15ne79360 0.0 1023830
20:00+11ne7134437 0.0 1024420
23 april, fri
fri2323:00+10ne612501 0.0 1023274
02:00+8ne475754 0.0 1023129
05:00+6ne36695 0.0 102383
08:00+11ene454719 0.0 1023228
11:00+19ne32242 0.0 1021661
14:00+21ne65240 0.0 10201128
17:00+20ne79260 0.0 1018885
20:00+14ne510425 0.0 1019198
24 april, sat
sat2423:00+12ene464239 0.0 101995
02:00+11ene4445100 0.0 101852
05:00+10ne334520 0.0 101733
08:00+16ne223497 0.0 1018135
11:00+23w231976 0.0 1017974
14:00+26wnw331329 0.0 10151799
17:00+26nnw2213100 0.0 10151870
20:00+18ne3334100 0.0 101739